GW6407 Weather Reports


Display with metric or nautical units.
time (UTC)temp
F
wind
direction
speed
MPH
gust
MPH
rain 1hr
in
rain 24hr
in
rain mn
in
humidity
%
barometer
mb
20260503173006 67 351 4.0 9.0 0.00 0.00 0.00 40 1003.4
20260503171512 65 265 5.0 13.0 0.00 0.00 0.00 39 1003.6
20260503081504 48 195 0.0 2.0 0.00 0.00 0.00 73 1007.0
20260503071505 50 284 3.0 9.0 0.00 0.00 0.00 60 1007.9
20260503054506 48 224 0.0 2.0 0.00 0.00 0.00 63 1008.3
20260503053008 49 224 0.0 2.0 0.00 0.00 0.00 61 1008.4
20260503051504 49 224 0.0 2.0 0.00 0.00 0.00 56 1008.5
20260503050005 49 188 1.0 8.0 0.00 0.00 0.00 55 1008.6
20260503044509 48 187 0.0 5.0 0.00 0.00 0.00 55 1008.7
20260503043006 48 202 2.0 6.0 0.00 0.00 0.00 56 1008.8
20260503041511 49 231 1.0 3.0 0.00 0.00 0.00 53 1009.0
20260503040011 49 229 0.0 4.0 0.00 0.00 0.00 53 1009.0
20260503034507 48 186 2.0 4.0 0.00 0.00 0.00 56 1009.2
20260503033011 48 186 2.0 4.0 0.00 0.00 0.00 54 1009.3
20260503031513 48 195 1.0 3.0 0.00 0.00 0.00 60 1009.6
20260503030012 48 185 1.0 3.0 0.00 0.00 0.00 57 1009.7
20260503024514 50 184 0.0 2.0 0.00 0.00 0.00 58 1009.8
20260503023013 50 184 1.0 1.0 0.00 0.00 0.00 51 1010.0
20260503021512 51 187 0.0 2.0 0.00 0.00 0.00 49 1010.1
20260503020015 52 187 0.0 3.0 0.00 0.00 0.00 54 1010.1
20260503014514 53 198 1.0 2.0 0.00 0.00 0.00 46 1010.1
20260503013024 53 206 1.0 6.0 0.00 0.00 0.00 45 1010.2
20260503011515 54 244 1.0 3.0 0.00 0.00 0.00 44 1010.2
20260503010015 55 278 1.0 3.0 0.00 0.00 0.00 41 1010.2
20260503004516 55 277 2.0 6.0 0.00 0.00 0.00 40 1010.4
20260503003016 55 296 0.0 2.0 0.00 0.00 0.00 39 1010.6
20260503001513 56 328 1.0 3.0 0.00 0.00 0.00 37 1010.7
20260503000017 56 240 1.0 8.0 0.00 0.00 0.00 35 1010.7
20260502234528 57 287 1.0 9.0 0.00 0.00 0.00 34 1010.7
20260502233030 57 224 2.0 5.0 0.00 0.00 0.00 34 1010.9
20260502231513 57 301 4.0 9.0 0.00 0.00 0.00 34 1011.0
20260502230025 56 316 4.0 11.0 0.00 0.00 0.00 33 1011.0
20260502224503 57 314 5.0 12.0 0.00 0.00 0.00 31 1011.1
20260502223004 58 323 4.0 9.0 0.00 0.00 0.00 31 1011.3
20260502221515 60 344 4.0 12.0 0.00 0.00 0.00 28 1011.3
20260502220023 60 344 4.0 12.0 0.00 0.00 0.00 28 1011.3
20260502214523 59 306 3.0 10.0 0.00 0.00 0.00 30 1011.5
20260502213003 59 270 4.0 17.0 0.00 0.00 0.00 28 1011.7
20260502211512 58 250 4.0 8.0 0.00 0.00 0.00 28 1011.9
20260502210015 57 276 2.0 16.0 0.00 0.00 0.00 30 1012.1
20260502204520 59 336 4.0 11.0 0.00 0.00 0.00 30 1012.2
20260502203024 59 316 3.0 9.0 0.00 0.00 0.00 31 1012.1
20260502201508 59 281 4.0 12.0 0.00 0.00 0.00 28 1012.4
20260502200013 58 213 1.0 11.0 0.00 0.00 0.00 30 1012.6
20260502194528 58 359 6.0 13.0 0.00 0.00 0.00 26 1013.1
20260502193023 59 309 3.0 11.0 0.00 0.00 0.00 29 1013.2
20260502191529 57 294 4.0 8.0 0.00 0.00 0.00 29 1013.5
20260502190011 57 211 4.0 13.0 0.00 0.00 0.00 28 1013.8
20260502184519 58 247 3.0 10.0 0.00 0.00 0.00 28 1013.8
20260502183021 57 253 3.0 7.0 0.00 0.00 0.00 32 1014.0
20260502181529 57 326 3.0 10.0 0.00 0.00 0.00 33 1014.2